Date String (YYYY-MM-DD hh:mm:ss) UTC,Instrument flags,absolute air pressure of the measurement (hPa),sample flow rate (lpm),inlet stack bypass flow (lpm),air temperature of the measurement (°C),ambient temperature measured by the external sensor (°C),aerosol sample conditioner tube jacket temperature (°C),OPC LED temperature (°C),internal box temperature (°C),relative humidity of the measurement (%),span deviation,mass concentration of particles derived from Lorenz-Mie calculation of OPC scattering (μg/m³),mass concentration of particles derived from Lorenz-Mie calculation of OPC scattering (μg/m³),mass concentration of particles derived from Lorenz-Mie calculation of OPC scattering (μg/m³)
DateTimeUTC,F1_M11,P_M11,Q1_M11,Q2_M11,T1_M11,T2_M11,T3_M11,T4_M11,T5_M11,U1_M11,ZSPAN_M11,X0_M11,X2_M11,X1_M11
2023-12-19 03:00:00,SystemResetWarning,0826.8,5.01,000.00,023.0,022.2,000.0,031.3,024.4,10.3,0000.0,0011.84,0004.29,0003.41
2023-12-19 03:01:00,SystemResetWarning,0826.8,5.00,000.00,023.0,022.3,000.0,031.3,024.4,10.2,0000.0,0012.07,0004.32,0003.44
2023-12-19 03:02:00,SystemResetWarning,0826.8,5.00,000.00,023.0,022.3,000.0,031.3,024.4,10.3,0000.0,0011.55,0004.31,0003.49
2023-12-19 03:03:00,SystemResetWarning,0826.9,4.99,000.00,023.0,022.2,000.0,031.3,024.3,10.5,0000.0,0011.35,0004.33,0003.52
2023-12-19 03:04:00,SystemResetWarning,0826.8,5.00,000.00,023.0,022.2,000.0,031.3,024.3,10.8,0000.0,0010.91,0004.36,0003.55
2023-12-19 03:05:00,SystemResetWarning,0826.8,5.02,000.00,023.0,022.2,000.0,031.3,024.3,10.8,0000.0,0011.68,0004.41,0003.58
2023-12-19 03:06:00,SystemResetWarning,0826.8,4.99,000.00,023.0,022.2,000.0,031.3,024.4,10.8,0000.0,0012.70,0004.48,0003.64
2023-12-19 03:07:00,SystemResetWarning,0826.7,5.00,000.00,023.0,022.2,000.0,031.3,024.4,10.7,0000.0,0012.92,0004.61,0003.71
2023-12-19 03:08:00,SystemResetWarning,0826.7,5.00,000.00,023.0,022.2,000.0,031.3,024.4,10.6,0000.0,0013.44,0004.66,0003.77
2023-12-19 03:09:00,SystemResetWarning,0826.7,4.99,000.00,023.0,022.2,000.0,031.3,024.4,10.7,0000.0,0013.49,0004.73,0003.81
2023-12-19 03:10:00,SystemResetWarning,0826.6,5.00,000.00,023.0,022.2,000.0,031.3,024.4,11.3,0000.0,0013.74,0004.77,0003.82
2023-12-19 03:11:00,SystemResetWarning,0826.6,5.01,000.00,023.0,022.2,000.0,031.3,024.5,11.3,0000.0,0013.82,0004.80,0003.85
2023-12-19 03:12:00,SystemResetWarning,0826.6,5.00,000.00,023.0,022.3,000.0,031.3,024.4,11.2,0000.0,0014.09,0004.86,0003.88
2023-12-19 03:13:00,SystemResetWarning,0826.6,5.00,000.00,023.0,022.3,000.0,031.3,024.4,11.6,0000.0,0014.37,0004.91,0003.91
2023-12-19 03:14:00,SystemResetWarning,0826.6,4.99,000.00,023.0,022.3,000.0,031.3,024.4,11.1,0000.0,0014.72,0004.93,0003.93
2023-12-19 03:15:00,SystemResetWarning,0826.6,4.99,000.00,023.0,022.2,000.0,031.3,024.4,10.8,0000.0,0014.51,0004.87,0003.89
2023-12-19 03:16:00,SystemResetWarning,0826.7,5.02,000.00,023.0,022.2,000.0,031.3,024.4,10.7,0000.0,0013.90,0004.76,0003.83
2023-12-19 03:17:00,SystemResetWarning,0826.8,5.01,000.00,023.0,022.2,000.0,031.3,024.4,11.1,0000.0,0013.52,0004.65,0003.75
2023-12-19 03:18:00,SystemResetWarning,0826.8,4.98,000.00,023.0,022.2,000.0,031.3,024.4,11.5,0000.0,0013.21,0004.46,0003.64
2023-12-19 03:19:00,SystemResetWarning,0826.7,5.00,000.00,023.0,022.2,000.0,031.3,024.4,11.5,0000.0,0012.74,0004.41,0003.57
2023-12-19 03:20:00,SystemResetWarning,0826.6,5.00,000.00,023.0,022.2,000.0,031.3,024.4,11.4,0000.0,0012.47,0004.33,0003.51
2023-12-19 03:21:00,SystemResetWarning,0826.6,5.01,000.00,023.0,022.2,000.0,031.3,024.4,11.1,0000.0,0012.32,0004.29,0003.48
2023-12-19 03:22:00,SystemResetWarning,0826.6,5.00,000.00,023.0,022.1,000.0,031.3,024.4,11.4,0000.0,0012.62,0004.23,0003.43
2023-12-19 03:23:00,SystemResetWarning,0826.7,4.99,000.00,023.0,022.1,000.0,031.3,024.4,11.4,0000.0,0012.12,0004.12,0003.36
2023-12-19 03:24:00,SystemResetWarning,0826.7,5.00,000.00,023.0,022.1,000.0,031.3,024.4,10.9,0000.0,0011.55,0004.00,0003.28
2023-12-19 03:25:00,SystemResetWarning,0826.7,5.00,000.00,023.0,022.1,000.0,031.3,024.4,10.8,0000.0,0010.98,0003.87,0003.19
2023-12-19 03:26:00,SystemResetWarning,0826.6,5.00,000.00,023.0,022.1,000.0,031.3,024.4,10.5,0000.0,0010.58,0003.81,0003.15
2023-12-19 03:27:00,SystemResetWarning,0826.7,5.00,000.00,023.0,022.1,000.0,031.3,024.4,10.3,0000.0,0010.28,0003.83,0003.13
2023-12-19 03:28:00,SystemResetWarning,0826.8,5.00,000.00,023.0,022.1,000.0,031.3,024.3,10.1,0000.0,0009.74,0003.81,0003.10
2023-12-19 03:29:00,SystemResetWarning,0826.8,5.01,000.00,023.0,022.2,000.0,031.3,024.3,9.9,0000.0,0009.46,0003.80,0003.10
2023-12-19 03:30:00,SystemResetWarning,0826.8,5.00,000.00,023.0,022.1,000.0,031.3,024.3,10.2,0000.0,0009.33,0003.81,0003.08
2023-12-19 03:31:00,SystemResetWarning,0826.8,5.00,000.00,023.0,022.1,000.0,031.3,024.3,10.5,0000.0,0009.15,0003.82,0003.08
2023-12-19 03:32:00,SystemResetWarning,0826.7,4.99,000.00,023.0,022.1,000.0,031.3,024.3,9.5,0000.0,0009.10,0003.84,0003.13
2023-12-19 03:33:00,SystemResetWarning,0826.6,4.99,000.00,023.0,022.1,000.0,031.3,024.3,9.2,0000.0,0009.92,0003.91,0003.21
2023-12-19 03:34:00,SystemResetWarning,0826.7,4.99,000.00,023.0,022.1,000.0,031.3,024.4,8.9,0000.0,0010.02,0004.01,0003.30
2023-12-19 03:35:00,SystemResetWarning,0826.7,5.00,000.00,023.0,022.1,000.0,031.3,024.4,9.8,0000.0,0010.19,0004.08,0003.37
2023-12-19 03:36:00,SystemResetWarning,0826.6,5.00,000.00,023.0,022.2,000.0,031.3,024.4,9.3,0000.0,0010.26,0004.10,0003.38
2023-12-19 03:37:00,SystemResetWarning,0826.6,5.00,000.00,023.0,022.2,000.0,031.3,024.4,8.9,0000.0,0010.32,0004.10,0003.39
2023-12-19 03:38:00,SystemResetWarning,0826.5,5.00,000.00,023.0,022.2,000.0,031.3,024.4,8.1,0000.0,0010.42,0004.06,0003.41
2023-12-19 03:39:00,SystemResetWarning,0826.5,5.01,000.00,023.0,022.2,000.0,031.3,024.4,7.3,0000.0,0011.10,0004.06,0003.44
2023-12-19 03:40:00,SystemResetWarning,0826.6,5.01,000.00,023.0,022.2,000.0,031.3,024.4,7.4,0000.0,0011.47,0004.11,0003.48
2023-12-19 03:41:00,SystemResetWarning,0826.6,5.00,000.00,023.0,022.2,000.0,031.3,024.4,8.0,0000.0,0011.48,0004.10,0003.48
2023-12-19 03:42:00,SystemResetWarning,0826.6,5.01,000.00,023.0,022.2,000.0,031.3,024.3,9.5,0000.0,0011.63,0004.01,0003.42
2023-12-19 03:43:00,SystemResetWarning,0826.6,5.00,000.00,023.0,022.2,000.0,031.3,024.3,9.5,0000.0,0011.76,0003.90,0003.30
2023-12-19 03:44:00,SystemResetWarning,0826.5,5.00,000.00,023.0,022.2,000.0,031.3,024.3,7.4,0000.0,0011.12,0003.71,0003.12
2023-12-19 03:45:00,SystemResetWarning,0826.4,5.00,000.00,023.0,022.2,000.0,031.3,024.3,6.8,0000.0,0010.80,0003.54,0002.86
2023-12-19 03:46:00,SystemResetWarning,0826.4,4.99,000.00,023.0,022.2,000.0,031.3,024.4,6.7,0000.0,0010.56,0003.39,0002.62
2023-12-19 03:47:00,SystemResetWarning,0826.4,4.99,000.00,023.0,022.2,000.0,031.3,024.3,7.0,0000.0,0010.46,0003.34,0002.53
2023-12-19 03:48:00,SystemResetWarning,0826.6,5.00,000.00,023.0,022.2,000.0,031.3,024.3,7.9,0000.0,0010.39,0003.32,0002.43
2023-12-19 03:49:00,SystemResetWarning,0826.6,5.00,000.00,023.0,022.2,000.0,031.3,024.3,8.1,0000.0,0010.53,0003.21,0002.24
2023-12-19 03:50:00,SystemResetWarning,0826.5,5.01,000.00,023.0,022.1,000.0,031.3,024.4,7.4,0000.0,0010.09,0003.03,0002.02
2023-12-19 03:51:00,SystemResetWarning,0826.4,5.01,000.00,023.0,022.1,000.0,031.3,024.4,7.3,0000.0,0009.22,0002.73,0001.78
2023-12-19 03:52:00,SystemResetWarning,0826.4,5.00,000.00,023.0,022.1,000.0,031.3,024.4,7.3,0000.0,0008.89,0002.50,0001.62
2023-12-19 03:53:00,SystemResetWarning,0826.5,5.01,000.00,023.0,022.1,000.0,031.3,024.3,6.9,0000.0,0008.67,0002.39,0001.55
2023-12-19 03:54:00,SystemResetWarning,0826.6,4.99,000.00,023.0,022.1,000.0,031.3,024.4,7.1,0000.0,0008.07,0002.30,0001.53
2023-12-19 03:55:00,SystemResetWarning,0826.6,5.00,000.00,023.0,022.1,000.0,031.3,024.4,7.5,0000.0,0007.49,0002.33,0001.52
2023-12-19 03:56:00,SystemResetWarning,0826.5,5.00,000.00,023.0,022.1,000.0,031.3,024.4,7.9,0000.0,0007.33,0002.25,0001.48
2023-12-19 03:57:00,SystemResetWarning,0826.4,5.00,000.00,023.0,022.1,000.0,031.3,024.4,7.3,0000.0,0007.10,0002.17,0001.43
2023-12-19 03:58:00,SystemResetWarning,0826.5,4.99,000.00,023.0,022.2,000.0,031.3,024.4,7.1,0000.0,0006.82,0002.00,0001.34
